Previsão horária em Centralnyy

Hoje, 31 Julho, Sábado

Tempo Temperatura Precipitação Vento Pressão Humidade
00:00 +17°C° 0.1 mm 2 m/s 740 mmHg 94%
01:00 +17°C° 0.1 mm 2 m/s 740 mmHg 95%
02:00 +16°C° 0.1 mm 2 m/s 740 mmHg 96%
03:00 +16°C° 0 mm 2 m/s 740 mmHg 95%
04:00 +16°C° 0 mm 2 m/s 740 mmHg 95%
05:00 +16°C° 0 mm 2 m/s 740 mmHg 94%
06:00 +18°C° 0 mm 3 m/s 740 mmHg 83%
07:00 +20°C° 0 mm 4 m/s 740 mmHg 72%
08:00 +21°C° 0 mm 4 m/s 740 mmHg 60%
09:00 +23°C° 0 mm 5 m/s 740 mmHg 52%
10:00 +25°C° 0 mm 5 m/s 740 mmHg 44%
11:00 +26°C° 0 mm 6 m/s 740 mmHg 36%
12:00 +26°C° 0 mm 6 m/s 741 mmHg 38%
13:00 +26°C° 0 mm 6 m/s 741 mmHg 40%
14:00 +26°C° 0 mm 5 m/s 741 mmHg 43%
15:00 +25°C° 0 mm 5 m/s 741 mmHg 46%
16:00 +25°C° 0 mm 4 m/s 741 mmHg 50%
17:00 +23°C° 0 mm 4 m/s 742 mmHg 53%
18:00 +22°C° 0 mm 3 m/s 742 mmHg 58%
19:00 +21°C° 0 mm 3 m/s 742 mmHg 62%
20:00 +20°C° 0 mm 3 m/s 742 mmHg 67%
21:00 +19°C° 0 mm 3 m/s 743 mmHg 72%
22:00 +18°C° 0 mm 2 m/s 743 mmHg 77%
23:00 +17°C° 0 mm 2 m/s 743 mmHg 83%

Amanhã, 1 Agosto, Domingo

Tempo Temperatura Precipitação Vento Pressão Humidade
00:00 +16°C° 0 mm 2 m/s 744 mmHg 85%
01:00 +16°C° 0 mm 2 m/s 744 mmHg 87%
02:00 +15°C° 0 mm 2 m/s 744 mmHg 89%
03:00 +16°C° 0 mm 2 m/s 745 mmHg 87%
04:00 +16°C° 0 mm 2 m/s 745 mmHg 86%
05:00 +17°C° 0 mm 2 m/s 745 mmHg 84%
06:00 +19°C° 0 mm 2 m/s 745 mmHg 76%
07:00 +20°C° 0 mm 2 m/s 745 mmHg 67%
08:00 +22°C° 0 mm 3 m/s 745 mmHg 58%
09:00 +22°C° 0.1 mm 3 m/s 745 mmHg 61%
10:00 +22°C° 0.1 mm 3 m/s 746 mmHg 64%
11:00 +22°C° 0.1 mm 3 m/s 746 mmHg 67%
12:00 +20°C° 1.3 mm 3 m/s 746 mmHg 77%
13:00 +19°C° 1.3 mm 2 m/s 745 mmHg 86%
14:00 +18°C° 1.3 mm 2 m/s 745 mmHg 96%
15:00 +19°C° 0 mm 2 m/s 745 mmHg 91%
16:00 +21°C° 0 mm 3 m/s 744 mmHg 86%
17:00 +22°C° 0 mm 3 m/s 744 mmHg 80%
18:00 +21°C° 0 mm 3 m/s 744 mmHg 85%
19:00 +20°C° 0 mm 2 m/s 744 mmHg 89%
20:00 +19°C° 0 mm 2 m/s 745 mmHg 94%
21:00 +19°C° 0 mm 2 m/s 745 mmHg 95%
22:00 +18°C° 0 mm 2 m/s 745 mmHg 95%
23:00 +18°C° 0 mm 2 m/s 745 mmHg 96%

Depois de amanhã, 2 Agosto, Segunda-feira

Tempo Temperatura Precipitação Vento Pressão Humidade
00:00 +18°C° 0 mm 2 m/s 745 mmHg 96%
01:00 +17°C° 0 mm 2 m/s 745 mmHg 96%
02:00 +17°C° 0 mm 2 m/s 745 mmHg 97%
03:00 +17°C° 0 mm 2 m/s 745 mmHg 95%
04:00 +17°C° 0 mm 2 m/s 745 mmHg 93%
05:00 +17°C° 0 mm 2 m/s 745 mmHg 91%
06:00 +19°C° 0 mm 2 m/s 745 mmHg 82%
07:00 +21°C° 0 mm 2 m/s 745 mmHg 73%
08:00 +25°C° 0 mm 2 m/s 745 mmHg 63%
09:00 +26°C° 0 mm 2 m/s 744 mmHg 57%
10:00 +28°C° 0 mm 2 m/s 744 mmHg 50%
11:00 +29°C° 0 mm 2 m/s 744 mmHg 43%
12:00 +30°C° 0 mm 3 m/s 743 mmHg 45%
13:00 +30°C° 0 mm 3 m/s 742 mmHg 46%
14:00 +30°C° 0 mm 4 m/s 742 mmHg 48%
15:00 +29°C° 0.1 mm 4 m/s 741 mmHg 55%
16:00 +28°C° 0.1 mm 3 m/s 741 mmHg 63%
17:00 +26°C° 0.1 mm 3 m/s 740 mmHg 70%
18:00 +25°C° 0.8 mm 2 m/s 740 mmHg 77%
19:00 +23°C° 0.8 mm 2 m/s 740 mmHg 84%
20:00 +21°C° 0.8 mm 2 m/s 739 mmHg 91%
21:00 +20°C° 0.8 mm 2 m/s 739 mmHg 92%
22:00 +20°C° 0.8 mm 3 m/s 739 mmHg 92%
23:00 +19°C° 0.8 mm 3 m/s 739 mmHg 93%

3 Agosto, Terça-feira

Tempo Temperatura Precipitação Vento Pressão Humidade
00:00 +19°C° 0 mm 3 m/s 739 mmHg 94%
01:00 +18°C° 0 mm 3 m/s 739 mmHg 95%
02:00 +18°C° 0 mm 3 m/s 739 mmHg 97%
03:00 +18°C° 0.5 mm 3 m/s 739 mmHg 97%
04:00 +18°C° 0.5 mm 3 m/s 739 mmHg 97%
05:00 +17°C° 0.5 mm 3 m/s 739 mmHg 98%
06:00 +17°C° 0.9 mm 3 m/s 740 mmHg 97%
07:00 +17°C° 0.9 mm 2 m/s 740 mmHg 97%
08:00 +17°C° 0.9 mm 2 m/s 740 mmHg 96%
09:00 +18°C° 0.1 mm 2 m/s 741 mmHg 89%
10:00 +19°C° 0.1 mm 3 m/s 741 mmHg 81%
11:00 +21°C° 0.1 mm 3 m/s 741 mmHg 74%
12:00 +20°C° 0.2 mm 3 m/s 742 mmHg 72%
13:00 +20°C° 0.2 mm 4 m/s 742 mmHg 71%
14:00 +20°C° 0.2 mm 4 m/s 742 mmHg 70%
15:00 +19°C° 0.1 mm 4 m/s 743 mmHg 73%
16:00 +19°C° 0.1 mm 3 m/s 743 mmHg 76%
17:00 +18°C° 0.1 mm 3 m/s 743 mmHg 78%
18:00 +17°C° 0.2 mm 3 m/s 744 mmHg 82%
19:00 +17°C° 0.2 mm 2 m/s 744 mmHg 86%
20:00 +16°C° 0.2 mm 2 m/s 744 mmHg 90%
21:00 +15°C° 0 mm 2 m/s 744 mmHg 91%
22:00 +15°C° 0 mm 2 m/s 745 mmHg 93%
23:00 +14°C° 0 mm 2 m/s 745 mmHg 95%

4 Agosto, Quarta-feira

Tempo Temperatura Precipitação Vento Pressão Humidade
00:00 +14°C° 0 mm 2 m/s 745 mmHg 95%
01:00 +13°C° 0 mm 2 m/s 746 mmHg 96%
02:00 +13°C° 0 mm 2 m/s 746 mmHg 97%
03:00 +13°C° 0 mm 2 m/s 746 mmHg 96%
04:00 +13°C° 0 mm 2 m/s 747 mmHg 96%
05:00 +13°C° 0 mm 2 m/s 747 mmHg 95%
06:00 +15°C° 0 mm 2 m/s 748 mmHg 87%
07:00 +17°C° 0 mm 3 m/s 748 mmHg 79%
08:00 +18°C° 0 mm 3 m/s 748 mmHg 71%
09:00 +20°C° 0 mm 3 m/s 749 mmHg 62%
10:00 +21°C° 0 mm 3 m/s 749 mmHg 53%
11:00 +22°C° 0 mm 3 m/s 749 mmHg 44%
12:00 +24°C° 0 mm 3 m/s 749 mmHg 41%
13:00 +24°C° 0 mm 3 m/s 749 mmHg 39%
14:00 +25°C° 0 mm 3 m/s 750 mmHg 36%
15:00 +24°C° 0 mm 3 m/s 750 mmHg 38%
16:00 +24°C° 0 mm 3 m/s 750 mmHg 41%
17:00 +24°C° 0 mm 2 m/s 750 mmHg 43%
18:00 +21°C° 0 mm 2 m/s 750 mmHg 49%
19:00 +19°C° 0 mm 1 m/s 750 mmHg 54%
20:00 +16°C° 0 mm 1 m/s 751 mmHg 60%
21:00 +16°C° 0 mm 1 m/s 751 mmHg 60%
22:00 +16°C° 0 mm 1 m/s 751 mmHg 61%
23:00 +14°C° 0 mm 0 m/s 751 mmHg 62%

5 Agosto, Quinta-feira

Tempo Temperatura Precipitação Vento Pressão Humidade
00:00 +15°C° 0 mm 1 m/s 752 mmHg 64%
01:00 +14°C° 0 mm 1 m/s 752 mmHg 67%
02:00 +14°C° 0 mm 1 m/s 752 mmHg 70%
03:00 +14°C° 0 mm 1 m/s 752 mmHg 72%
04:00 +14°C° 0 mm 1 m/s 752 mmHg 75%
05:00 +14°C° 0 mm 1 m/s 753 mmHg 77%
06:00 +15°C° 0 mm 2 m/s 753 mmHg 72%
07:00 +17°C° 0 mm 2 m/s 753 mmHg 67%
08:00 +19°C° 0 mm 2 m/s 753 mmHg 62%
09:00 +20°C° 0 mm 2 m/s 753 mmHg 55%
10:00 +23°C° 0 mm 2 m/s 753 mmHg 48%
11:00 +24°C° 0 mm 2 m/s 752 mmHg 42%
12:00 +24°C° 0 mm 2 m/s 752 mmHg 42%
13:00 +24°C° 0 mm 2 m/s 752 mmHg 42%
14:00 +24°C° 0 mm 2 m/s 752 mmHg 42%
15:00 +24°C° 0 mm 2 m/s 752 mmHg 45%
16:00 +23°C° 0 mm 2 m/s 752 mmHg 47%
17:00 +23°C° 0 mm 2 m/s 751 mmHg 50%
18:00 +21°C° 0 mm 2 m/s 751 mmHg 53%
19:00 +20°C° 0 mm 2 m/s 751 mmHg 56%
20:00 +18°C° 0 mm 2 m/s 751 mmHg 59%
21:00 +18°C° 0 mm 3 m/s 751 mmHg 61%
22:00 +17°C° 0 mm 3 m/s 751 mmHg 62%
23:00 +17°C° 0 mm 3 m/s 751 mmHg 64%
Mostrar mais

Necessitamos do seu Consentimento

A Meteoprog e os seus Fornecedores de Serviços podem armazenar e aceder a dados pessoais como cookies, identificadores do dispositivo ou outras tecnologias semelhantes existentes no seu dispositivo e processar estes dados para personalizar conteúdos e anúncios, assim como funcionalidades nas redes sociais e análise de tráfego.

  • Armazenar e/ou aceder a informações no seu dispositivo

    Os cookies, identificadores do dispositivo ou outras informações podem ser armazenados ou acedidos no seu dispositivo, para os fins acima indicados.

  • Anúncios e conteúdos personalizados, medição de anúncios e conteúdos, dados sobre o público-alvo e desenvolvimento de produtos

    Os anúncios e os conteúdos podem ser personalizados com base num perfil. Podem ser adicionados dados adicionais para uma maior personalização dos anúncios e dos conteúdos. A eficácia dos anúncios e dos conteúdos pode ser medida. Podem ser obtidas informações sobre o público que visualizou os anúncios e os conteúdos. Estes dados podem ser usados para desenvolver ou melhorar sistemas, softwares ou a experiência do utilizador.

Ao clicar em "Eu concordo”, permitirá o uso de cookies, identificadores do dispositivo e web beacons mencionados ou outras tecnologias semelhantes. As configurações do navegador do seu dispositivo podem ser alteradas.

Para certos fins, podem ser invocados interesses legítimos ao invés de consentimento. Pode ler mais informação sobre este assunto na nossa Política de Privacidade e Cookies.